Weather in Yuryevka

Russia / Omsk Oblast     54°01′31″N   73°23′35″E
temp.,
°C
wind,
m/s
gust,
m/s
humid.,
%
clouds,
%
prec.,
mm/h
press.,
hPa
HPBL,
m
20 january, thu
thu2000:00−17wsw36965 0.0 102860
03:00−18sw46975 0.0 103067
06:00−18wsw46955 0.0 103069
09:00−19wsw359734 0.0 103260
12:00−16wsw359392 0.0 1032100
15:00−14sw359271 0.0 103292
18:00−19ssw229788 0.0 103319
21:00−21sse229531 0.0 10339
21 january, fri
fri2100:00−21s33975 0.0 103318
03:00−22sse22995 0.0 103227
06:00−22se2210047 0.0 103217
09:00−19se3599100 0.0 103156
12:00−15se3694100 0.0 1031124
15:00−13ese3693100 0.0 1030140
18:00−15ese3694100 0.0 103073
21:00−16ese369499 0.0 103062
22 january, sat
sat2200:00−17se369499 0.0 103172
03:00−18ese3497100 0.0 103149
06:00−18ese3496100 0.0 103252
09:00−19ese349732 0.0 103353
12:00−16ese36945 0.0 1033120
15:00−14ese36925 0.0 1033126
18:00−18ese359617 0.0 103448
21:00−18ese479620 0.0 103480
23 january, sun
sun2300:00−20ese35985 0.0 103555
03:00−20e369837 0.0 103569
06:00−20e369829 0.0 103566
09:00−21e359766 0.0 103656
12:00−17e389371 0.0 1037144
15:00−15e369387 0.0 1036138
18:00−17e3596100 0.0 103770
21:00−16e3697100 0.0 103886
24 january, mon
mon2400:00−17ene3497100 0.0 103861
03:00−18ene3497100 0.0 103861
06:00−18ene3498100 0.0 103856
09:00−18ne3498100 0.0 103953
12:00−15ene2495100 0.0 103999
15:00−13nne2395100 0.0 1038102
18:00−17nne2298100 0.0 103830
21:00−16nne2397100 0.0 103846